TimeCST,TemperatureF,Dew PointF,Humidity,Sea Level PressureIn,VisibilityMPH,Wind Direction,Wind SpeedMPH,Gust SpeedMPH,PrecipitationIn,Events,Conditions,WindDirDegrees,DateUTC
12:03 AM,55.4,55.4,100,29.62,10.0,West,10.4,-,N/A,Rain,Light Rain,260,2013-01-30 06:03:00
12:13 AM,55.4,55.4,100,29.59,10.0,WNW,12.7,20.7,N/A,Rain,Light Rain,290,2013-01-30 06:13:00
12:23 AM,55.4,53.6,94,29.61,10.0,West,11.5,18.4,N/A,Rain,Light Rain,260,2013-01-30 06:23:00
12:28 AM,55.4,53.6,94,29.59,10.0,WNW,12.7,21.9,N/A,Rain,Light Rain,290,2013-01-30 06:28:00
12:33 AM,55.4,53.6,94,29.59,10.0,West,10.4,21.9,N/A,Rain,Light Rain,280,2013-01-30 06:33:00
12:49 AM,55.4,51.8,88,29.57,10.0,West,2.3,-,N/A,,Scattered Clouds,270,2013-01-30 06:49:00
12:58 AM,55.4,52.0,88,29.57,10.0,West,1.2,-,N/A,,Scattered Clouds,260,2013-01-30 06:58:00
1:03 AM,55.4,51.8,88,29.55,10.0,West,1.2,-,N/A,Rain,Light Rain,280,2013-01-30 07:03:00
1:15 AM,55.4,51.8,88,29.54,10.0,Calm,Calm,-,N/A,,Mostly Cloudy,320,2013-01-30 07:15:00
1:58 AM,54.3,52.0,92,29.58,10.0,SSE,4.6,-,N/A,,Partly Cloudy,160,2013-01-30 07:58:00
2:58 AM,53.4,51.8,94,29.58,10.0,South,3.5,-,N/A,,Mostly Cloudy,180,2013-01-30 08:58:00
3:58 AM,53.2,51.3,93,29.57,10.0,South,6.9,-,N/A,,Mostly Cloudy,170,2013-01-30 09:58:00
4:58 AM,52.7,50.0,91,29.56,10.0,South,9.2,-,N/A,,Mostly Cloudy,190,2013-01-30 10:58:00
5:58 AM,52.5,48.2,85,29.56,10.0,SW,12.7,-,N/A,,Mostly Cloudy,230,2013-01-30 11:58:00
6:58 AM,50.9,46.4,85,29.59,10.0,SW,10.4,-,N/A,,Scattered Clouds,230,2013-01-30 12:58:00
7:38 AM,50.0,44.6,82,29.60,10.0,WSW,12.7,-,N/A,,Mostly Cloudy,250,2013-01-30 13:38:00
7:58 AM,50.4,43.3,77,29.63,10.0,West,19.6,27.6,N/A,,Mostly Cloudy,260,2013-01-30 13:58:00
8:03 AM,50.0,42.8,76,29.62,10.0,West,18.4,27.6,N/A,,Mostly Cloudy,270,2013-01-30 14:03:00
8:28 AM,48.2,41.0,76,29.63,10.0,West,17.3,-,N/A,,Mostly Cloudy,270,2013-01-30 14:28:00
8:58 AM,47.7,40.5,76,29.65,10.0,West,18.4,23.0,N/A,,Mostly Cloudy,270,2013-01-30 14:58:00
9:08 AM,48.2,39.2,71,29.65,10.0,West,23.0,33.4,N/A,,Scattered Clouds,270,2013-01-30 15:08:00
9:28 AM,46.4,39.2,76,29.66,10.0,West,20.7,27.6,N/A,,Mostly Cloudy,260,2013-01-30 15:28:00
9:43 AM,46.4,39.2,76,29.65,10.0,West,15.0,-,N/A,,Mostly Cloudy,270,2013-01-30 15:43:00
9:48 AM,46.4,37.4,71,29.64,10.0,West,18.4,-,N/A,,Mostly Cloudy,270,2013-01-30 15:48:00
9:58 AM,46.6,37.4,70,29.66,10.0,West,16.1,24.2,N/A,,Mostly Cloudy,270,2013-01-30 15:58:00
10:08 AM,46.4,35.6,66,29.66,10.0,West,16.1,24.2,N/A,,Mostly Cloudy,280,2013-01-30 16:08:00
10:13 AM,46.4,35.6,66,29.67,10.0,West,19.6,31.1,N/A,,Mostly Cloudy,280,2013-01-30 16:13:00
10:58 AM,44.2,35.6,72,29.70,10.0,West,17.3,23.0,N/A,,Overcast,270,2013-01-30 16:58:00
11:08 AM,44.6,35.6,71,29.69,10.0,West,16.1,28.8,N/A,,Overcast,270,2013-01-30 17:08:00
11:58 AM,44.6,31.8,61,29.74,10.0,West,18.4,27.6,N/A,,Overcast,270,2013-01-30 17:58:00
12:58 PM,43.7,30.7,60,29.76,10.0,West,20.7,29.9,N/A,,Mostly Cloudy,280,2013-01-30 18:58:00
1:58 PM,44.1,29.7,57,29.79,10.0,West,21.9,28.8,N/A,,Mostly Cloudy,270,2013-01-30 19:58:00
2:58 PM,43.3,28.6,56,29.83,10.0,West,17.3,23.0,N/A,,Mostly Cloudy,280,2013-01-30 20:58:00
3:58 PM,43.3,27.0,52,29.87,10.0,West,17.3,27.6,N/A,,Scattered Clouds,280,2013-01-30 21:58:00
4:58 PM,42.1,26.1,53,29.91,10.0,West,15.0,24.2,N/A,,Mostly Cloudy,280,2013-01-30 22:58:00
5:58 PM,39.9,24.8,55,29.95,10.0,West,12.7,25.3,N/A,,Clear,280,2013-01-30 23:58:00
6:58 PM,38.7,26.1,61,29.99,10.0,West,15.0,19.6,N/A,,Clear,270,2013-01-31 00:58:00
7:58 PM,38.5,25.2,59,30.02,10.0,West,11.5,-,N/A,,Clear,270,2013-01-31 01:58:00
8:58 PM,37.0,25.7,64,30.06,10.0,West,8.1,-,N/A,,Clear,270,2013-01-31 02:58:00
9:58 PM,35.6,26.1,68,30.09,10.0,West,5.8,-,N/A,,Clear,270,2013-01-31 03:58:00
10:58 PM,34.7,25.9,70,30.10,10.0,West,6.9,-,N/A,,Clear,270,2013-01-31 04:58:00
11:58 PM,34.7,25.5,69,30.10,10.0,West,3.5,-,N/A,,Clear,270,2013-01-31 05:58:00